QPF
0.00 0.00 0.00 0.00 0.00 0.00 0.00 0.00 0.00 0.00 0.00 0.00 0.00 0.00 0.00 0.00 0.00 0.00 0.00 0.00 0.00 0.00 0.00 0.00 0.00 0.00 0.00 0.00 0.00 0.00 0.00 0.00 0.00 0.00 0.00 0.00 0.00 0.00 0.00 0.00 0.00 0.00 0.00 0.00 0.00 0.00 0.00 0.00 0.00
0.00 0.00 0.00 0.00 0.00 0.00 0.00 0.00 0.00 0.00 0.00 0.00 0.00 0.00 0.00 0.00 0.00 0.00 0.00 0.00 0.00 0.00 0.00 0.00 0.00 0.00 0.00 0.00 0.00 0.00 0.00 0.00 0.00 0.00 0.00 0.00 0.00 0.00 0.00 0.00 0.00 0.00 0.00 0.00 0.00 0.00 0.00 0.00 0.00
0.00 0.00 0.00 0.00 0.00 0.00 0.00 0.00 0.00 0.00 0.00 0.00 0.00 0.00 0.00 0.00 0.00 0.00 0.00 0.00 0.00 0.00 0.00 0.00 0.00 0.00 0.00 0.00 0.00 0.00 0.00 0.00 0.00 0.00 0.00 0.00 0.00 0.00 0.00 0.00 0.00 0.00 0.00 0.00 0.00 0.00 0.00 0.00 0.00
0.00 0.00 0.00 0.00 0.00 0.00 0.00 0.00 0.00 0.00 0.00 0.00 0.00 0.00 0.00 0.00 0.00 0.00 0.00 0.00 0.00 0.00 0.00 0.00 0.00 0.00 0.00 0.00 0.00 0.00 0.00 0.00 0.00 0.00 0.00 0.00 0.00 0.00 0.00 0.00 0.00 0.00 0.00 0.00 0.00 0.00 0.00 0.00 0.00
0.00 0.00 0.00 0.00 0.00 0.00 0.00 0.00 0.00 0.00 0.00 0.00 0.00 0.00 0.00 0.00 0.00 0.00 0.00 0.00 0.00 0.00 0.00 0.00 0.00 0.00 0.00 0.00 0.00 0.00 0.00 0.00 0.00 0.00 0.00 0.00 0.00 0.00 0.00 0.00 0.00 0.00 0.00 0.00 0.00 0.00 0.00 0.00 0.00
0.00 0.00 0.00 0.00 0.00 0.00 0.00 0.00 0.00 0.00 0.00 0.00 0.00 0.00 0.00 0.00 0.00 0.00 0.00 0.00 0.00 0.00 0.00 0.00 0.00 0.00 0.00 0.00 0.00 0.00 0.00 0.00 0.00 0.00 0.00 0.00 0.00 0.00 0.00 0.00 0.00 0.00 0.00 0.00 0.00 0.00 0.00 0.00 0.00
0.00 0.00 0.00 0.00 0.00 0.00 0.00 0.00 0.00 0.00 0.00 0.00 0.00 0.00 0.00 0.00 0.00 0.00 0.00 0.00 0.00 0.00 0.00 0.00 0.00 0.00 0.00 0.00 0.00 0.00 0.00 0.00 0.00 0.00 0.00 0.00 0.00 0.00 0.00 0.00 0.00 0.00 0.00 0.00 0.00 0.00 0.00 0.00 0.00
0.00 0.00 0.00 0.00 0.00 0.00 0.00 0.00 0.00 0.00 0.00 0.00 0.00 0.00 0.00 0.00 0.00 0.00 0.00 0.00 0.00 0.00 0.00 0.00 0.00 0.00 0.00 0.00 0.00 0.00 0.00 0.00 0.00 0.00 0.00 0.00 0.00 0.00 0.00 0.00 0.00 0.00 0.00 0.00 0.00 0.00 0.00 0.00 0.00
0.00 0.00 0.00 0.00 0.00 0.00 0.00 0.00 0.00 0.00 0.00 0.00 0.00 0.00 0.00 0.00 0.00 0.00 0.00 0.00 0.00 0.00 0.00 0.00 0.00 0.00 0.00 0.00 0.00 0.00 0.00 0.00 0.00 0.00 0.00 0.00 0.00 0.00 0.00 0.00 0.00 0.00 0.00 0.00 0.00 0.00 0.00 0.00 0.00
0.00 0.00 0.00 0.00 0.00 0.00 0.00 0.00 0.00 0.00 0.00 0.00 0.00 0.00 0.00 0.00 0.00 0.00 0.00 0.00 0.00 0.00 0.00 0.00 0.00 0.00 0.00 0.00 0.00 0.00 0.00 0.00 0.00 0.00 0.00 0.00 0.00 0.00 0.00 0.00 0.00 0.00 0.00 0.00 0.00 0.00 0.00 0.00 0.00
0.00 0.00 0.00 0.00 0.00 0.00 0.00 0.00 0.00 0.00 0.00 0.00 0.00 0.00 0.00 0.00 0.00 0.00 0.00 0.00 0.00 0.00 0.00 0.00 0.00 0.00 0.00 0.00 0.00 0.00 0.00 0.00 0.00 0.00 0.00 0.00 0.00 0.00 0.00 0.00 0.00 0.00 0.00 0.00 0.00 0.00 0.00 0.00 0.00
0.00 0.00 0.00 0.00 0.00 0.00 0.00 0.00 0.00 0.00 0.00 0.00 0.00 0.00 0.00 0.00 0.00 0.00 0.00 0.00 0.00 0.00 0.00 0.00 0.00 0.00 0.00 0.00 0.00 0.00 0.00 0.00 0.00 0.00 0.00 0.00 0.00 0.00 0.00 0.00 0.00 0.00 0.00 0.00 0.00 0.00 0.00 0.00 0.00
0.00 0.00 0.00 0.00 0.00 0.00 0.00 0.00 0.00 0.00 0.00 0.00 0.00 0.00 0.00 0.00 0.00 0.00 0.00 0.00 0.00 0.00 0.00 0.00 0.00 0.00 0.00 0.00 0.00 0.00 0.00 0.00 0.00 0.00 0.00 0.00 0.00 0.00 0.00 0.00 0.00 0.00 0.00 0.00 0.00 0.00 0.00 0.00 0.00
0.00 0.00 0.00 0.00 0.00 0.00 0.00 0.00 0.00 0.00 0.00 0.00 0.00 0.00 0.00 0.00 0.00 0.00 0.00 0.00 0.00 0.00 0.00 0.00 0.00 0.00 0.00 0.00 0.00 0.00 0.00 0.00 0.00 0.00 0.00 0.00 0.00 0.00 0.00 0.00 0.00 0.00 0.00 0.00 0.00 0.00 0.00 0.00 0.00
0.00 0.00 0.00 0.00 0.00 0.00 0.00 0.00 0.00 0.00 0.00 0.00 0.00 0.00 0.00 0.00 0.00 0.00 0.00 0.00 0.00 0.00 0.00 0.00 0.00 0.00 0.00 0.00 0.00 0.00 0.00 0.00 0.00 0.00 0.00 0.00 0.00 0.00 0.00 0.00 0.00 0.00 0.00 0.00 0.00 0.00 0.00 0.00 0.00
0.00 0.00 0.00 0.00 0.00 0.00 0.00 0.00 0.00 0.00 0.00 0.00 0.00 0.00 0.00 0.00 0.00 0.00 0.00 0.00 0.00 0.00 0.00 0.00 0.00 0.00 0.00 0.00 0.00 0.00 0.00 0.00 0.00 0.00 0.00 0.00 0.00 0.00 0.00 0.00 0.00 0.00 0.00 0.00 0.00 0.00 0.00 0.00 0.00
0.00 0.00 0.00 0.00 0.00 0.00 0.00 0.00 0.00 0.00 0.00 0.00 0.00 0.00 0.00 0.00 0.00 0.00 0.00 0.00 0.00 0.00 0.00 0.00 0.00 0.00 0.00 0.00 0.00 0.00 0.00 0.00 0.00 0.00 0.00 0.00 0.00 0.00 0.00 0.00 0.00 0.00 0.00 0.00 0.00 0.00 0.00 0.00 0.00
0.00 0.00 0.00 0.00 0.00 0.00 0.00 0.00 0.00 0.00 0.00 0.00 0.00 0.00 0.00 0.00 0.00 0.00 0.00 0.00 0.00 0.00 0.00 0.00 0.00 0.00 0.00 0.00 0.00 0.00 0.00 0.00 0.00 0.00 0.00 0.00 0.00 0.00 0.00 0.00 0.00 0.00 0.00 0.00 0.00 0.00 0.00 0.00 0.00
0.00 0.00 0.00 0.00 0.00 0.00 0.00 0.00 0.00 0.00 0.00 0.00 0.00 0.00 0.00 0.00 0.00 0.00 0.00 0.00 0.00 0.00 0.00 0.00 0.00 0.00 0.00 0.00 0.00 0.00 0.00 0.00 0.00 0.00 0.00 0.00 0.00 0.00 0.00 0.00 0.00 0.00 0.00 0.00 0.00 0.00 0.00 0.00 0.00
0.00 0.00 0.00 0.00 0.00 0.00 0.00 0.00 0.00 0.00 0.00 0.00 0.00 0.00 0.00 0.00 0.00 0.00 0.00 0.00 0.00 0.00 0.00 0.00 0.00 0.00 0.00 0.00 0.00 0.00 0.00 0.00 0.00 0.00 0.00 0.00 0.00 0.00 0.00 0.00 0.00 0.00 0.00 0.00 0.00 0.00 0.00 0.00 0.01
0.00 0.00 0.00 0.00 0.00 0.00 0.00 0.00 0.00 0.00 0.00 0.00 0.00 0.00 0.00 0.00 0.00 0.00 0.00 0.00 0.00 0.00 0.00 0.00 0.00 0.00 0.00 0.00 0.00 0.00 0.00 0.00 0.00 0.00 0.00 0.00 0.00 0.00 0.00 0.00 0.00 0.00 0.00 0.00 0.00 0.00 0.00 0.00 0.02
0.00 0.00 0.00 0.00 0.00 0.00 0.00 0.00 0.00 0.00 0.00 0.00 0.00 0.00 0.00 0.00 0.00 0.00 0.00 0.00 0.00 0.00 0.00 0.00 0.00 0.00 0.00 0.00 0.00 0.00 0.00 0.00 0.00 0.00 0.00 0.00 0.00 0.00 0.00 0.00 0.00 0.00 0.00 0.00 0.00 0.00 0.00 0.01 0.02
0.00 0.00 0.00 0.00 0.00 0.00 0.00 0.00 0.00 0.00 0.00 0.00 0.00 0.00 0.00 0.00 0.00 0.00 0.00 0.00 0.00 0.00 0.00 0.00 0.00 0.00 0.00 0.00 0.00 0.00 0.00 0.00 0.00 0.00 0.00 0.00 0.00 0.00 0.00 0.00 0.00 0.00 0.00 0.00 0.00 0.00 0.00 0.00 0.01
0.00 0.00 0.00 0.00 0.00 0.00 0.00 0.00 0.00 0.00 0.00 0.00 0.00 0.00 0.00 0.00 0.00 0.00 0.00 0.00 0.00 0.00 0.00 0.00 0.00 0.00 0.00 0.00 0.00 0.00 0.00 0.00 0.00 0.00 0.00 0.00 0.00 0.00 0.00 0.00 0.00 0.00 0.00 0.00 0.00 0.01 0.01 0.01 0.00
0.00 0.00 0.00 0.00 0.00 0.00 0.00 0.00 0.00 0.00 0.00 0.00 0.00 0.00 0.00 0.00 0.00 0.00 0.00 0.00 0.00 0.00 0.00 0.00 0.00 0.00 0.00 0.00 0.00 0.00 0.00 0.00 0.00 0.00 0.00 0.00 0.00 0.00 0.00 0.00 0.00 0.00 0.00 0.00 0.01 0.01 0.02 0.02 0.01
0.00 0.00 0.00 0.00 0.00 0.00 0.00 0.00 0.00 0.00 0.00 0.00 0.00 0.00 0.00 0.00 0.00 0.00 0.00 0.00 0.00 0.00 0.00 0.00 0.00 0.00 0.00 0.00 0.00 0.00 0.00 0.00 0.00 0.00 0.00 0.00 0.00 0.00 0.00 0.00 0.00 0.00 0.00 0.00 0.00 0.00 0.01 0.03 0.03
0.00 0.00 0.00 0.00 0.00 0.00 0.00 0.00 0.00 0.00 0.00 0.00 0.00 0.00 0.00 0.00 0.00 0.00 0.00 0.00 0.00 0.00 0.00 0.00 0.00 0.00 0.00 0.00 0.00 0.00 0.00 0.00 0.00 0.00 0.00 0.00 0.00 0.00 0.00 0.00 0.00 0.01 0.01 0.01 0.03 0.00 0.03 0.02 0.01
0.00 0.00 0.00 0.00 0.00 0.00 0.00 0.00 0.00 0.00 0.00 0.00 0.00 0.00 0.00 0.00 0.00 0.00 0.00 0.00 0.00 0.00 0.00 0.00 0.00 0.00 0.00 0.00 0.00 0.00 0.00 0.00 0.00 0.00 0.00 0.00 0.00 0.00 0.00 0.00 0.01 0.01 0.02 0.03 0.02 0.01 0.05 0.01 0.02
0.00 0.00 0.00 0.00 0.00 0.00 0.00 0.00 0.00 0.00 0.00 0.00 0.00 0.00 0.00 0.00 0.00 0.00 0.00 0.00 0.00 0.00 0.00 0.00 0.00 0.00 0.00 0.00 0.00 0.00 0.00 0.00 0.00 0.00 0.00 0.00 0.00 0.00 0.01 0.01 0.01 0.01 0.02 0.03 0.01 0.01 0.02 0.03 0.04
0.00 0.00 0.00 0.00 0.00 0.00 0.00 0.00 0.00 0.00 0.00 0.00 0.00 0.00 0.00 0.00 0.00 0.00 0.00 0.00 0.00 0.00 0.00 0.00 0.00 0.00 0.00 0.00 0.00 0.00 0.00 0.00 0.00 0.00 0.00 0.00 0.01 0.00 0.00 0.00 0.00 0.00 0.01 0.01 0.00 0.00 0.01 0.02 0.03
MSLP
1011.19 1009.93 1008.46 1007.40 1005.66 1002.35 1001.09 1001.87 1001.79 1002.18 1002.51 1003.56 1003.98 1003.80 1004.24 1004.05 1004.50 1005.65 1007.18 1006.95 1007.66 1008.97 1010.95 1012.32 1012.90 1013.32 1013.75 1014.21 1014.51 1014.95 1015.37 1015.50 1015.75 1015.98 1016.24 1016.44 1016.52 1016.62 1016.73 1016.84 1016.99 1017.16 1017.16 1017.25 1017.44 1017.64 1017.67 1017.86 1017.96
1009.67 1008.66 1007.88 1005.84 1003.77 1000.51 1001.01 1001.92 1001.66 1002.48 1003.54 1004.10 1004.40 1004.22 1003.97 1004.15 1005.21 1006.30 1007.05 1007.94 1008.04 1009.13 1011.06 1011.95 1013.08 1013.34 1013.85 1014.35 1014.79 1015.02 1015.39 1015.63 1015.91 1016.09 1016.30 1016.55 1016.76 1016.85 1017.04 1017.14 1017.23 1017.42 1017.52 1017.56 1017.64 1017.82 1018.00 1018.16 1018.19
1010.35 1008.55 1006.50 1003.44 1000.98 1000.10 1000.92 1001.90 1002.47 1003.31 1003.95 1004.03 1003.78 1004.31 1004.42 1004.83 1005.80 1006.12 1007.16 1007.91 1008.24 1009.45 1010.95 1011.95 1013.18 1013.58 1014.00 1014.45 1014.89 1015.12 1015.47 1015.75 1015.96 1016.17 1016.31 1016.50 1016.76 1016.97 1017.15 1017.35 1017.48 1017.58 1017.68 1017.82 1017.91 1017.98 1018.21 1018.35 1018.35
1008.75 1007.14 1005.77 1003.14 1001.00 1001.98 1001.80 1002.30 1002.74 1003.33 1003.84 1003.90 1003.86 1003.63 1004.62 1005.83 1005.79 1006.48 1007.53 1008.10 1008.67 1009.78 1010.79 1012.66 1013.30 1013.66 1014.08 1014.43 1014.86 1015.18 1015.51 1015.76 1015.99 1016.20 1016.34 1016.55 1016.72 1016.93 1017.19 1017.41 1017.52 1017.65 1017.79 1017.89 1018.06 1018.26 1018.40 1018.54 1018.56
1008.23 1006.21 1003.57 1001.71 1001.86 1002.59 1002.69 1003.00 1003.06 1002.82 1003.23 1003.59 1003.87 1003.62 1004.28 1005.98 1006.56 1007.11 1007.83 1008.31 1008.87 1009.92 1010.64 1012.59 1013.39 1013.69 1013.97 1014.29 1014.68 1015.12 1015.53 1015.77 1016.01 1016.23 1016.39 1016.57 1016.76 1016.99 1017.24 1017.41 1017.54 1017.66 1017.80 1017.96 1018.16 1018.35 1018.47 1018.55 1018.64
1006.83 1004.94 1002.52 1001.49 1002.10 1002.91 1003.11 1003.37 1003.25 1002.98 1002.87 1003.31 1003.74 1003.79 1004.52 1006.02 1006.58 1007.40 1007.93 1008.45 1009.11 1009.85 1010.72 1012.32 1013.44 1013.63 1013.94 1014.23 1014.72 1015.10 1015.39 1015.69 1015.97 1016.21 1016.48 1016.71 1016.88 1017.02 1017.18 1017.34 1017.45 1017.68 1017.90 1018.06 1018.28 1018.49 1018.60 1018.63 1018.73
1006.65 1004.13 1002.24 1001.75 1002.35 1002.70 1003.13 1003.61 1003.23 1002.95 1002.81 1002.63 1003.43 1003.23 1004.45 1005.60 1006.41 1007.34 1008.00 1008.72 1009.35 1009.99 1010.80 1012.15 1013.17 1013.71 1014.12 1014.32 1014.68 1015.10 1015.46 1015.83 1016.10 1016.28 1016.48 1016.66 1016.82 1016.98 1017.09 1017.25 1017.45 1017.68 1017.92 1018.07 1018.24 1018.43 1018.55 1018.60 1018.63
1007.24 1004.76 1002.91 1002.42 1002.31 1002.48 1003.54 1003.37 1003.53 1003.22 1002.22 1002.93 1003.13 1002.63 1003.54 1004.95 1006.62 1007.03 1007.78 1008.51 1009.32 1010.09 1010.89 1011.74 1012.48 1013.21 1013.78 1014.23 1014.95 1015.27 1015.51 1015.90 1016.16 1016.32 1016.48 1016.64 1016.92 1017.04 1017.12 1017.27 1017.43 1017.61 1017.83 1018.03 1018.16 1018.30 1018.44 1018.51 1018.52
1006.75 1005.24 1002.78 1002.42 1002.84 1002.68 1003.69 1003.54 1003.44 1003.43 1003.01 1002.95 1003.18 1003.16 1003.98 1005.49 1006.36 1006.82 1007.43 1007.94 1008.86 1009.73 1010.47 1011.16 1011.68 1012.19 1012.78 1013.34 1014.13 1015.10 1015.52 1015.86 1016.17 1016.38 1016.64 1016.80 1016.35 1016.54 1016.65 1016.83 1017.04 1017.45 1017.68 1017.79 1017.93 1018.04 1018.19 1018.30 1018.35
1006.23 1004.40 1003.01 1003.27 1003.68 1003.88 1003.74 1003.54 1003.13 1002.95 1002.36 1002.49 1003.05 1003.63 1004.47 1005.55 1006.00 1006.23 1006.76 1007.24 1008.02 1008.86 1009.64 1010.36 1011.05 1011.51 1012.14 1012.35 1012.93 1014.04 1014.50 1015.06 1015.48 1015.65 1015.93 1016.05 1015.75 1015.54 1015.65 1016.00 1016.90 1017.31 1017.53 1017.63 1017.72 1017.88 1018.02 1018.10 1017.22
1005.88 1005.10 1004.06 1004.24 1004.60 1004.86 1004.25 1003.55 1003.03 1002.83 1002.14 1001.91 1002.18 1002.51 1003.90 1004.87 1005.29 1005.52 1005.75 1006.27 1007.12 1007.99 1008.67 1009.30 1010.32 1010.77 1011.40 1011.69 1012.04 1012.83 1013.43 1013.93 1014.34 1014.58 1014.83 1015.29 1014.96 1015.03 1015.38 1015.35 1016.22 1016.60 1017.13 1016.90 1017.21 1017.34 1017.39 1016.91 1016.41
1006.43 1005.64 1005.28 1004.94 1004.83 1005.01 1004.28 1003.73 1003.45 1003.10 1002.32 1002.02 1002.54 1002.95 1003.10 1004.13 1004.39 1004.68 1004.69 1004.98 1005.79 1006.78 1007.65 1008.52 1009.19 1010.20 1010.84 1010.89 1011.31 1011.64 1012.41 1012.89 1013.27 1013.60 1014.03 1014.19 1014.33 1014.34 1014.46 1014.60 1014.80 1015.52 1015.40 1015.75 1015.47 1015.56 1015.76 1015.83 1015.57
1006.34 1006.01 1005.39 1005.27 1005.24 1004.88 1004.44 1003.85 1003.40 1002.86 1002.65 1002.41 1002.43 1002.68 1003.03 1003.29 1003.63 1003.84 1003.93 1003.98 1004.47 1005.56 1006.56 1007.59 1008.42 1009.55 1010.20 1010.71 1010.53 1011.07 1011.37 1011.78 1012.29 1012.69 1013.32 1013.70 1013.55 1013.72 1013.96 1013.96 1013.98 1014.02 1014.30 1014.40 1014.69 1014.58 1014.59 1014.97 1015.17
1006.12 1006.06 1005.63 1005.13 1004.79 1004.49 1004.16 1003.35 1002.93 1002.36 1002.31 1002.21 1002.17 1002.10 1002.09 1002.33 1002.59 1002.76 1003.17 1003.30 1003.63 1004.37 1005.59 1006.87 1007.67 1008.62 1009.80 1010.17 1010.17 1010.19 1010.56 1010.75 1011.56 1011.87 1012.25 1013.10 1013.16 1013.09 1013.30 1013.65 1013.51 1013.53 1013.52 1013.60 1013.77 1013.94 1014.08 1014.16 1014.34
1006.54 1005.88 1004.87 1004.00 1003.85 1004.18 1004.11 1002.88 1001.80 1001.86 1001.81 1001.83 1001.47 1001.58 1001.54 1001.45 1001.39 1001.62 1001.94 1002.38 1003.13 1003.55 1004.44 1006.05 1007.16 1007.98 1008.90 1009.52 1010.06 1010.21 1010.11 1010.50 1010.65 1011.17 1011.51 1012.11 1012.92 1012.80 1012.90 1013.10 1013.15 1013.04 1013.09 1013.34 1013.34 1013.43 1013.53 1013.54 1013.57
1005.98 1005.11 1003.99 1002.58 1003.59 1003.60 1004.34 1002.00 1000.88 1001.45 1001.57 1001.29 1001.02 1000.82 1000.70 1000.78 1000.94 1000.83 1001.03 1001.30 1001.84 1002.82 1003.56 1004.97 1006.51 1007.32 1008.23 1008.77 1009.31 1009.60 1009.56 1009.88 1010.15 1010.29 1010.73 1011.30 1011.93 1012.44 1012.48 1012.60 1012.55 1012.59 1012.69 1012.75 1013.13 1013.17 1013.19 1013.01 1013.12
1004.45 1003.66 1002.73 1002.38 1003.02 1003.78 1003.64 1002.20 1001.53 1001.31 1001.22 1000.88 1000.69 1000.58 1000.42 1000.14 1000.17 1000.40 1000.54 1000.61 1000.80 1001.56 1002.83 1004.12 1005.63 1006.60 1007.48 1008.44 1008.86 1009.14 1009.12 1009.33 1009.48 1009.85 1009.93 1010.26 1011.06 1011.61 1012.00 1011.85 1011.87 1011.99 1012.23 1012.35 1012.48 1012.57 1012.61 1012.40 1012.81
1003.11 1002.44 1002.43 1002.34 1002.57 1003.06 1002.86 1002.27 1001.65 1000.89 1000.36 999.94 999.81 999.90 1000.00 999.82 999.60 999.58 999.63 999.91 1000.18 1001.06 1002.04 1003.28 1004.63 1005.90 1006.91 1007.85 1008.42 1008.44 1008.55 1008.58 1008.72 1008.95 1009.16 1009.40 1009.78 1010.49 1010.93 1011.10 1011.09 1011.30 1011.57 1011.63 1011.69 1011.83 1011.83 1011.88 1012.12
1004.05 1003.38 1002.94 1002.61 1002.54 1002.68 1002.18 1001.62 1000.93 1000.28 999.73 999.06 999.13 999.01 999.26 999.26 999.20 999.24 999.42 999.68 1000.28 1000.84 1001.62 1002.47 1003.73 1005.00 1006.36 1006.88 1007.23 1007.47 1007.28 1007.76 1007.98 1008.18 1008.28 1008.58 1008.93 1009.32 1009.96 1010.28 1010.49 1010.72 1010.68 1010.84 1011.07 1011.31 1011.40 1011.42 1011.71
1004.23 1003.76 1003.06 1002.80 1002.43 1002.83 1001.93 1000.86 1000.12 999.72 999.03 998.99 998.76 998.66 998.86 998.93 998.89 999.12 999.85 999.87 1000.18 1000.73 1001.44 1002.09 1002.99 1004.19 1005.33 1006.02 1006.38 1006.44 1006.73 1006.75 1007.08 1007.37 1007.55 1007.85 1008.13 1008.58 1008.97 1009.36 1009.44 1009.62 1009.92 1010.14 1010.30 1010.50 1010.59 1010.88 1011.36
1004.12 1003.75 1003.29 1002.89 1002.43 1002.09 1001.55 1000.25 999.03 998.42 999.04 998.97 998.96 998.98 999.10 999.31 999.25 999.59 999.97 1000.20 1000.57 1000.91 1001.34 1001.77 1002.35 1003.20 1004.17 1005.00 1005.59 1005.96 1006.27 1006.24 1006.13 1006.17 1006.39 1006.82 1007.43 1007.72 1008.17 1008.38 1008.72 1008.74 1008.87 1008.81 1009.18 1009.51 1009.70 1009.75 1010.28
1003.51 1003.64 1003.44 1003.23 1002.94 1001.62 1000.54 999.18 998.13 998.00 998.07 998.59 998.64 998.91 999.15 999.43 999.75 1000.06 1000.34 1000.79 1001.17 1001.38 1001.53 1001.79 1001.90 1002.53 1003.31 1004.16 1004.72 1005.03 1005.32 1005.29 1005.32 1005.40 1005.40 1005.74 1006.28 1006.93 1007.41 1007.73 1007.91 1008.03 1007.98 1007.86 1008.00 1008.35 1008.63 1009.21 1009.14
1003.39 1003.71 1003.49 1003.42 1002.92 1002.15 1000.79 999.70 998.17 997.65 997.02 997.58 998.28 998.80 999.17 999.78 999.99 1000.26 1000.76 1000.97 1001.27 1001.67 1001.96 1002.06 1002.19 1002.18 1002.82 1003.49 1004.31 1004.67 1004.80 1004.89 1004.89 1004.79 1004.80 1004.96 1005.27 1005.67 1006.19 1006.67 1007.07 1007.28 1007.37 1007.24 1007.28 1007.60 1008.05 1008.24 1008.62
1003.71 1003.87 1004.11 1004.00 1003.09 1001.56 1000.30 999.46 997.44 996.69 996.40 996.75 997.64 998.78 999.32 999.75 1000.25 1000.47 1000.83 1001.28 1001.49 1001.98 1002.39 1002.58 1002.41 1002.47 1002.89 1003.48 1003.96 1004.49 1004.68 1004.64 1004.66 1004.60 1004.65 1004.61 1004.64 1004.95 1005.32 1005.77 1006.24 1006.63 1006.86 1006.87 1007.03 1007.28 1007.56 1007.83 1008.08
1003.37 1003.71 1003.64 1003.00 1001.86 1000.42 999.55 998.10 996.60 996.11 996.33 996.25 996.96 998.55 999.24 999.65 1000.01 1000.32 1000.65 1001.27 1001.81 1002.13 1002.52 1002.78 1002.95 1003.17 1003.33 1003.60 1003.87 1004.13 1004.37 1004.57 1004.50 1004.44 1004.39 1004.28 1004.10 1004.20 1004.50 1005.24 1005.84 1006.20 1006.55 1006.68 1006.88 1006.99 1007.09 1007.21 1007.50
1003.03 1002.98 1002.75 1001.13 1000.81 999.62 998.10 996.81 996.77 996.55 996.72 997.11 996.92 998.28 999.14 999.54 1000.03 1000.56 1000.84 1001.11 1001.82 1002.26 1002.84 1002.84 1002.84 1002.90 1003.29 1003.61 1003.81 1003.97 1004.16 1004.08 1004.01 1003.91 1003.90 1003.80 1003.73 1003.65 1003.77 1004.30 1005.01 1005.54 1005.94 1006.21 1006.43 1006.48 1006.48 1006.67 1006.77
1002.55 1002.24 1002.29 1002.24 1001.67 1000.20 998.56 997.31 996.77 996.76 997.11 997.07 997.54 998.54 998.99 999.46 999.96 1000.56 1001.11 1001.58 1002.13 1002.49 1003.05 1003.27 1003.17 1003.13 1003.30 1003.55 1003.60 1003.63 1003.81 1003.92 1003.78 1003.69 1003.70 1003.65 1003.60 1003.47 1003.38 1003.58 1004.20 1004.64 1005.00 1005.34 1005.63 1005.66 1005.63 1005.88 1005.94
1001.63 1002.46 1002.08 1002.22 1001.43 1000.02 998.64 997.46 996.24 995.99 995.50 996.79 997.65 998.39 998.99 999.38 999.99 1000.66 1001.41 1002.06 1002.43 1002.83 1003.30 1003.67 1003.68 1003.63 1003.91 1004.04 1004.11 1003.99 1003.90 1003.78 1003.76 1003.70 1003.67 1003.69 1003.54 1003.33 1003.31 1003.37 1003.59 1003.95 1004.26 1004.50 1004.80 1004.71 1004.85 1005.07 1005.19
1000.86 1001.61 1001.97 1001.30 1000.88 999.71 998.59 996.89 996.04 995.30 994.85 995.66 996.86 997.96 998.92 999.73 1000.14 1001.12 1001.85 1002.31 1002.77 1003.11 1003.52 1003.94 1004.13 1004.20 1004.31 1004.39 1004.45 1004.43 1004.33 1004.27 1004.11 1003.98 1003.77 1003.65 1003.51 1003.46 1003.39 1003.47 1003.38 1003.47 1003.65 1003.87 1004.00 1004.03 1004.22 1004.45 1004.52
1001.66 1001.14 1001.23 1000.89 1000.41 999.47 998.48 997.14 996.08 995.70 995.83 995.80 996.20 997.63 999.15 1000.26 1000.64 1001.38 1001.97 1002.71 1003.27 1003.59 1003.91 1004.53 1004.86 1004.86 1004.95 1004.91 1004.90 1004.83 1004.66 1004.49 1004.28 1004.06 1003.87 1003.80 1003.69 1003.43 1003.43 1003.47 1003.33 1003.08 1003.28 1003.55 1003.70 1003.84 1004.00 1004.24 1004.58
Thickness
5782 5792 5806 5800 5779 5805 5802 5792 5812 5797 5795 5802 5802 5796 5785 5793 5776 5753 5795 5803 5799 5788 5771 5761 5758 5754 5752 5749 5748 5745 5742 5741 5739 5737 5736 5734 5733 5733 5732 5731 5730 5728 5728 5727 5725 5723 5723 5722 5721
5793 5801 5802 5799 5779 5799 5796 5805 5802 5802 5800 5802 5798 5797 5792 5781 5797 5789 5788 5793 5795 5785 5769 5763 5756 5754 5752 5748 5745 5744 5742 5740 5738 5737 5736 5734 5732 5731 5730 5730 5729 5727 5726 5725 5724 5722 5721 5719 5719
5789 5803 5792 5802 5816 5809 5795 5805 5802 5802 5804 5799 5797 5804 5794 5782 5793 5794 5797 5794 5792 5782 5769 5763 5755 5753 5751 5747 5744 5744 5741 5739 5738 5737 5736 5735 5733 5732 5730 5729 5727 5726 5725 5723 5721 5720 5719 5718 5718
5792 5800 5802 5791 5805 5801 5803 5806 5809 5800 5803 5808 5805 5792 5803 5802 5796 5799 5796 5792 5786 5777 5769 5757 5754 5753 5750 5748 5744 5743 5741 5739 5738 5737 5736 5735 5734 5732 5730 5728 5727 5725 5724 5722 5720 5718 5717 5715 5715
5797 5797 5788 5805 5797 5799 5807 5808 5809 5802 5802 5801 5805 5791 5793 5798 5802 5798 5792 5789 5781 5774 5770 5756 5752 5752 5751 5749 5746 5743 5741 5739 5738 5737 5736 5735 5734 5732 5729 5727 5726 5724 5723 5721 5718 5716 5715 5714 5713
5782 5801 5792 5795 5794 5798 5804 5807 5805 5804 5808 5803 5796 5795 5793 5804 5797 5792 5791 5786 5782 5774 5768 5758 5751 5751 5750 5748 5746 5744 5741 5740 5738 5737 5735 5734 5733 5731 5730 5728 5726 5723 5721 5719 5717 5714 5713 5712 5711
5777 5792 5797 5804 5791 5791 5796 5809 5800 5802 5802 5803 5809 5792 5797 5797 5801 5795 5789 5784 5778 5774 5767 5757 5751 5749 5748 5747 5745 5743 5741 5738 5737 5736 5735 5734 5732 5731 5729 5728 5725 5723 5720 5718 5716 5714 5712 5711 5710
5779 5791 5790 5798 5790 5791 5800 5805 5808 5804 5811 5822 5818 5799 5790 5802 5800 5798 5792 5785 5778 5772 5767 5761 5755 5751 5749 5747 5743 5741 5740 5737 5736 5735 5733 5732 5730 5728 5727 5726 5724 5722 5720 5717 5715 5713 5712 5711 5709
5797 5772 5787 5795 5788 5796 5803 5795 5810 5817 5807 5811 5811 5811 5811 5807 5802 5794 5787 5785 5779 5774 5770 5766 5762 5760 5756 5753 5748 5743 5739 5737 5734 5733 5731 5729 5731 5729 5727 5725 5724 5721 5719 5717 5716 5714 5712 5710 5708
5779 5780 5792 5801 5797 5787 5797 5798 5804 5803 5806 5805 5804 5812 5811 5802 5797 5791 5785 5781 5779 5776 5774 5772 5768 5765 5761 5760 5756 5748 5745 5740 5737 5735 5733 5732 5733 5734 5733 5729 5723 5719 5717 5716 5715 5713 5711 5709 5712
5782 5768 5793 5793 5793 5791 5790 5796 5810 5799 5796 5812 5805 5811 5807 5801 5798 5795 5794 5792 5785 5784 5782 5781 5774 5770 5766 5764 5761 5756 5752 5748 5745 5743 5740 5736 5737 5736 5732 5731 5725 5721 5717 5717 5715 5713 5711 5713 5715
5761 5780 5783 5787 5793 5785 5786 5799 5793 5798 5804 5820 5815 5814 5813 5800 5799 5799 5800 5801 5797 5792 5788 5786 5783 5775 5770 5769 5765 5762 5757 5754 5751 5748 5744 5742 5740 5739 5737 5735 5732 5726 5726 5723 5724 5723 5720 5718 5718
5765 5771 5782 5784 5784 5786 5791 5788 5789 5795 5810 5818 5817 5813 5807 5805 5804 5807 5809 5810 5808 5798 5795 5790 5787 5777 5773 5768 5770 5765 5762 5758 5754 5751 5745 5742 5742 5741 5737 5736 5735 5734 5731 5729 5726 5726 5725 5720 5717
5776 5773 5775 5782 5781 5786 5780 5788 5794 5801 5810 5809 5810 5810 5812 5811 5810 5811 5809 5808 5809 5806 5799 5794 5789 5783 5773 5770 5771 5770 5766 5764 5756 5753 5749 5741 5740 5740 5737 5734 5734 5733 5732 5731 5728 5726 5724 5722 5719
5769 5759 5776 5786 5788 5778 5784 5778 5787 5805 5808 5801 5807 5809 5812 5815 5819 5816 5817 5813 5810 5810 5806 5795 5789 5785 5777 5772 5767 5765 5765 5761 5759 5753 5749 5744 5736 5736 5734 5732 5731 5731 5730 5727 5726 5724 5723 5723 5721
5760 5768 5755 5791 5784 5786 5773 5765 5804 5809 5801 5799 5806 5810 5814 5817 5817 5823 5824 5823 5821 5813 5806 5799 5790 5784 5777 5773 5768 5765 5764 5760 5756 5755 5751 5745 5738 5733 5732 5730 5730 5728 5727 5726 5722 5721 5719 5720 5717
5767 5752 5765 5773 5787 5774 5770 5767 5792 5806 5801 5798 5801 5804 5808 5814 5818 5821 5823 5825 5825 5821 5810 5800 5791 5783 5777 5770 5766 5763 5763 5760 5757 5753 5751 5748 5740 5734 5730 5730 5728 5726 5724 5723 5721 5719 5718 5717 5713
5756 5765 5768 5762 5776 5774 5767 5769 5785 5800 5803 5804 5807 5806 5806 5809 5815 5823 5827 5828 5828 5822 5815 5805 5795 5784 5776 5768 5764 5763 5761 5761 5757 5755 5752 5749 5746 5739 5734 5731 5731 5726 5724 5723 5722 5718 5718 5716 5712
5754 5753 5752 5767 5776 5766 5767 5771 5783 5798 5803 5806 5808 5809 5808 5809 5819 5824 5825 5825 5821 5818 5811 5804 5794 5785 5774 5768 5763 5760 5761 5758 5758 5757 5755 5750 5746 5742 5737 5733 5729 5726 5725 5722 5720 5717 5713 5711 5709
5743 5738 5747 5762 5771 5756 5765 5770 5788 5796 5803 5805 5806 5808 5808 5810 5814 5817 5814 5817 5815 5811 5807 5802 5795 5785 5777 5771 5767 5766 5762 5762 5759 5757 5755 5750 5746 5741 5737 5733 5732 5730 5725 5723 5720 5716 5712 5710 5703
5734 5732 5740 5743 5759 5763 5762 5762 5784 5800 5797 5802 5804 5806 5806 5803 5804 5805 5805 5806 5806 5803 5801 5799 5795 5787 5780 5775 5769 5765 5761 5761 5759 5758 5756 5753 5747 5743 5739 5737 5733 5731 5729 5727 5723 5718 5712 5707 5705
5721 5746 5741 5737 5733 5726 5767 5738 5779 5789 5787 5790 5795 5798 5799 5800 5801 5799 5797 5793 5792 5793 5797 5796 5796 5789 5782 5777 5768 5762 5756 5753 5757 5757 5758 5756 5752 5745 5739 5736 5733 5730 5729 5729 5726 5722 5716 5706 5702
5723 5737 5731 5732 5727 5730 5742 5734 5765 5788 5782 5786 5788 5792 5795 5794 5795 5792 5790 5791 5792 5790 5786 5787 5787 5788 5782 5776 5768 5761 5757 5757 5756 5756 5754 5753 5752 5749 5744 5738 5733 5728 5725 5726 5723 5718 5711 5707 5698
5734 5718 5717 5718 5719 5700 5736 5738 5753 5775 5784 5789 5786 5786 5787 5787 5786 5787 5788 5786 5784 5783 5779 5778 5779 5778 5776 5770 5765 5757 5753 5753 5750 5749 5747 5748 5748 5745 5742 5738 5732 5726 5720 5718 5715 5710 5706 5701 5694
5713 5697 5679 5684 5692 5699 5749 5745 5760 5788 5791 5795 5785 5780 5781 5782 5781 5780 5778 5775 5773 5772 5771 5770 5768 5764 5765 5762 5759 5756 5752 5748 5746 5745 5743 5742 5742 5740 5737 5731 5723 5718 5712 5708 5704 5700 5698 5695 5688
5697 5702 5684 5676 5694 5719 5763 5735 5748 5781 5785 5788 5791 5781 5777 5776 5775 5772 5772 5771 5768 5766 5762 5763 5763 5762 5760 5756 5754 5752 5749 5747 5746 5745 5743 5741 5738 5736 5735 5729 5721 5712 5706 5702 5696 5693 5691 5685 5682
5691 5684 5715 5690 5704 5699 5725 5748 5764 5771 5769 5774 5774 5767 5766 5768 5767 5765 5763 5761 5759 5758 5754 5752 5754 5755 5754 5751 5750 5748 5745 5741 5739 5738 5737 5733 5731 5728 5726 5720 5713 5707 5701 5696 5690 5688 5684 5679 5677
5688 5706 5680 5679 5656 5663 5701 5717 5732 5757 5768 5759 5758 5756 5759 5763 5761 5758 5754 5750 5751 5749 5747 5745 5745 5743 5741 5739 5737 5736 5734 5733 5731 5729 5725 5721 5719 5717 5714 5709 5703 5698 5694 5689 5684 5683 5679 5673 5669
5688 5673 5679 5691 5691 5673 5675 5707 5762 5767 5774 5760 5758 5756 5753 5751 5750 5745 5743 5742 5740 5738 5736 5732 5731 5729 5728 5727 5725 5722 5721 5719 5718 5715 5713 5710 5707 5702 5698 5694 5691 5688 5683 5680 5676 5674 5670 5664 5661
5674 5676 5677 5658 5664 5686 5690 5692 5762 5760 5757 5759 5761 5753 5745 5740 5740 5737 5733 5730 5726 5723 5721 5716 5714 5713 5712 5712 5711 5708 5708 5706 5704 5702 5700 5696 5691 5689 5685 5680 5678 5677 5672 5668 5664 5660 5657 5652 5647